GW0366 Weather Reports


time (UTC)temp
F
wind
direction
speed
knots
gust
knots
rain 1hr
in
rain 24hr
in
rain mn
in
humidity
%
barometer
mb
20260506145948 77 198 2.6 6.1 0.00 0.00 0.00 71 1016.8
20260506145444 77 199 0.0 0.0 0.00 0.00 0.00 72 1016.8
20260506144942 76 210 1.7 1.7 0.00 0.00 0.00 73 1016.7
20260506144438 76 201 2.6 2.6 0.00 0.00 0.00 72 1016.7
20260506143937 76 214 0.9 1.7 0.00 0.00 0.00 74 1016.4
20260506143433 76 222 0.0 0.0 0.00 0.00 0.00 74 1016.3
20260506142932 76 203 0.9 1.7 0.00 0.00 0.00 73 1016.6
20260506142429 76 206 0.0 0.9 0.00 0.00 0.00 74 1016.4
20260506141927 75 206 0.0 0.0 0.00 0.00 0.00 74 1016.1
20260506141425 75 206 1.7 1.7 0.00 0.00 0.00 75 1016.4
20260506140923 75 198 1.7 1.7 0.00 0.00 0.00 75 1016.4
20260506140419 75 217 0.0 0.0 0.00 0.00 0.00 76 1016.3
20260506135917 75 192 0.0 0.0 0.00 0.00 0.00 77 1016.4
20260506135414 75 191 0.0 0.0 0.00 0.00 0.00 77 1016.4
20260506134909 74 194 0.0 0.0 0.00 0.00 0.00 78 1016.5
20260506134406 74 184 0.0 0.0 0.00 0.00 0.00 78 1016.4
20260506133903 74 194 0.0 0.0 0.00 0.00 0.00 79 1016.3
20260506133400 74 198 1.7 2.6 0.00 0.00 0.00 79 1016.1
20260506132856 74 193 0.9 1.7 0.00 0.00 0.00 78 1016.1
20260506132354 74 204 0.9 2.6 0.00 0.00 0.00 79 1016.3
20260506131852 74 220 0.0 0.0 0.00 0.00 0.00 79 1016.1
20260506131347 73 194 0.0 0.0 0.00 0.00 0.00 79 1016.2
20260506130845 73 191 0.0 0.0 0.00 0.00 0.00 79 1015.9
20260506130341 73 218 0.0 0.0 0.00 0.00 0.00 79 1016.1
20260506125839 73 202 0.0 0.0 0.00 0.00 0.00 80 1016.1
20260506125337 72 194 0.0 0.0 0.00 0.00 0.00 82 1015.8
20260506124835 72 213 0.0 0.0 0.00 0.00 0.00 82 1016.0
20260506124332 72 214 0.0 0.0 0.00 0.00 0.00 82 1016.0
20260506123829 72 204 0.0 0.0 0.00 0.00 0.00 83 1016.2
20260506123328 72 204 0.0 0.0 0.00 0.00 0.00 84 1015.6
20260506122825 71 204 0.0 0.0 0.00 0.00 0.00 84 1016.0
20260506122321 71 201 0.0 0.0 0.00 0.00 0.00 85 1016.0
20260506121820 71 200 0.0 0.0 0.00 0.00 0.00 85 1015.9
20260506121317 71 200 0.0 0.0 0.00 0.00 0.00 85 1015.9
20260506120814 71 200 0.0 0.9 0.00 0.00 0.00 86 1016.0
20260506120312 70 197 0.0 0.0 0.00 0.00 0.00 86 1015.8
20260506115809 70 197 0.0 0.0 0.00 0.00 0.00 87 1015.9
20260506115307 69 196 0.0 0.0 0.00 0.00 0.00 89 1015.7
20260506114804 69 196 0.0 0.0 0.00 0.00 0.00 90 1015.6
20260506114302 69 196 0.0 0.0 0.00 0.00 0.00 91 1015.5
20260506113800 68 196 0.0 0.0 0.00 0.00 0.00 92 1015.8
20260506113258 68 196 0.0 0.0 0.00 0.00 0.00 92 1015.6
20260506112754 68 196 0.0 0.0 0.00 0.00 0.00 93 1015.4
20260506112252 67 196 0.0 0.0 0.00 0.00 0.00 93 1015.2
20260506111749 67 196 0.0 0.0 0.00 0.00 0.00 93 1015.3
20260506111247 67 196 0.0 0.0 0.00 0.00 0.00 93 1015.4
20260506110743 67 196 0.0 0.0 0.00 0.00 0.00 93 1015.5
20260506110241 66 196 0.0 0.0 0.00 0.00 0.00 93 1015.5
20260506105737 66 196 0.0 0.0 0.00 0.00 0.00 93 1015.5
20260506105234 66 196 0.0 0.0 0.00 0.00 0.00 93 1015.4
20260506104732 66 196 0.0 0.0 0.00 0.00 0.00 93 1015.4
20260506104229 66 196 0.0 0.0 0.00 0.00 0.00 93 1015.2
20260506103726 66 196 0.0 0.0 0.00 0.00 0.00 92 1015.2
20260506103224 66 196 0.0 0.0 0.00 0.00 0.00 92 1015.2
20260506102721 66 196 0.0 0.0 0.00 0.00 0.00 92 1015.1
20260506102220 66 196 0.0 0.0 0.00 0.00 0.00 91 1015.3
20260506101716 66 196 0.0 0.0 0.00 0.00 0.00 91 1015.2
20260506101213 66 196 0.0 0.0 0.00 0.00 0.00 91 1015.1
20260506100711 66 196 0.0 0.0 0.00 0.00 0.00 90 1015.4
20260506100208 66 196 0.0 0.0 0.00 0.00 0.00 90 1015.0
20260506095707 66 196 0.0 0.0 0.00 0.00 0.00 89 1015.1
20260506095203 66 196 0.0 0.0 0.00 0.00 0.00 89 1015.4
20260506094700 67 196 0.0 0.0 0.00 0.00 0.00 89 1015.2
20260506094158 67 196 0.0 0.0 0.00 0.00 0.00 88 1015.0
20260506093657 67 196 0.0 0.0 0.00 0.00 0.00 88 1015.2
20260506093153 67 196 0.0 0.0 0.00 0.00 0.00 88 1014.9
20260506092651 67 196 0.0 0.0 0.00 0.00 0.00 88 1015.0
20260506092148 67 196 0.0 0.0 0.00 0.00 0.00 87 1015.1
20260506091646 67 196 0.0 0.0 0.00 0.00 0.00 87 1015.0
20260506091143 67 196 0.0 0.0 0.00 0.00 0.00 87 1015.3
20260506090641 67 196 0.0 0.0 0.00 0.00 0.00 87 1015.0
20260506090137 67 196 0.0 0.0 0.00 0.00 0.00 86 1015.1
20260506085634 67 196 0.0 0.0 0.00 0.00 0.00 86 1015.1
20260506085130 67 196 0.0 0.0 0.00 0.00 0.00 86 1015.0
20260506084627 67 196 0.0 0.0 0.00 0.00 0.00 87 1015.2
20260506084124 67 196 0.0 0.0 0.00 0.00 0.00 87 1015.1
20260506083621 67 196 0.0 0.0 0.00 0.00 0.00 87 1015.3
20260506083119 67 196 0.0 0.0 0.00 0.00 0.00 88 1015.1
20260506082615 67 196 0.0 0.0 0.00 0.00 0.00 88 1015.2
20260506082111 68 196 0.0 0.0 0.00 0.00 0.00 89 1015.3
20260506081609 68 196 0.0 0.0 0.00 0.00 0.00 89 1015.3
20260506081106 68 196 0.0 0.0 0.00 0.00 0.00 88 1015.2
20260506080604 68 196 0.0 0.0 0.00 0.00 0.00 88 1015.2
20260506073044 68 196 0.0 0.0 0.00 0.00 0.00 86 1014.9
20260506072541 68 189 0.0 0.0 0.00 0.00 0.00 86 1014.7
20260506072039 68 189 0.0 0.0 0.00 0.00 0.00 86 1015.1
20260506071537 68 189 0.0 0.0 0.00 0.00 0.00 86 1014.8
20260506071034 68 189 0.0 0.0 0.00 0.00 0.00 86 1015.0
20260506070531 68 189 0.0 0.0 0.00 0.00 0.00 86 1015.2
20260506062509 68 184 0.0 0.0 0.00 0.00 0.00 84 1015.4
20260506062005 68 178 0.0 0.0 0.00 0.00 0.00 84 1015.5
20260506061501 68 178 0.0 0.0 0.00 0.00 0.00 84 1015.2
20260506060959 68 178 0.0 0.0 0.00 0.00 0.00 84 1015.2
20260506060457 68 177 0.0 0.0 0.00 0.00 0.00 84 1015.3
20260506050926 68 178 0.0 0.0 0.00 0.00 0.00 82 1015.8
20260506050423 68 177 0.0 0.0 0.00 0.00 0.00 82 1016.1
20260506044914 69 177 0.0 0.0 0.00 0.00 0.00 80 1016.3
20260506044412 69 178 0.0 0.0 0.00 0.00 0.00 80 1016.2
20260506043909 69 177 0.0 0.0 0.00 0.00 0.00 80 1016.5
20260506043406 69 177 0.0 0.0 0.00 0.00 0.00 79 1016.2
20260506042904 69 178 0.0 0.0 0.00 0.00 0.00 78 1016.3
20260506042403 69 178 0.0 0.0 0.00 0.00 0.00 78 1016.4
20260506041900 69 178 0.0 0.0 0.00 0.00 0.00 77 1016.2
20260506041358 69 177 0.0 0.0 0.00 0.00 0.00 77 1016.2
20260506040855 69 177 0.0 0.0 0.00 0.00 0.00 77 1016.4
20260506040352 69 177 0.0 0.0 0.00 0.00 0.00 77 1016.3
20260506035848 69 177 0.0 0.0 0.00 0.00 0.00 77 1016.2
20260506035346 69 177 0.0 0.0 0.00 0.00 0.00 77 1016.2
20260506034843 69 177 0.0 0.0 0.00 0.00 0.00 77 1016.1
20260506034340 69 177 0.0 0.0 0.00 0.00 0.00 77 1016.0
20260506033837 69 177 0.0 0.0 0.00 0.00 0.00 77 1016.2
20260506033334 69 165 0.0 0.0 0.00 0.00 0.00 77 1016.0
20260506032831 69 182 0.0 0.0 0.00 0.00 0.00 77 1016.1
20260506032327 69 182 0.0 0.0 0.00 0.00 0.00 78 1016.1
20260506031825 69 182 0.0 0.0 0.00 0.00 0.00 78 1016.0
20260506031322 69 182 0.0 0.0 0.00 0.00 0.00 77 1016.2
20260506030819 69 182 0.0 0.0 0.00 0.00 0.00 76 1016.2
20260506030317 69 182 0.0 0.0 0.00 0.00 0.00 75 1016.2
20260506025814 69 182 0.0 0.0 0.00 0.00 0.00 75 1016.2
20260506025310 69 182 0.0 0.0 0.00 0.00 0.00 75 1016.2
20260506024807 69 182 0.0 0.0 0.00 0.00 0.00 75 1016.1
20260506024304 69 182 0.0 0.0 0.00 0.00 0.00 74 1016.3
20260506023800 69 182 0.0 0.0 0.00 0.00 0.00 73 1016.5
20260506023258 69 182 0.0 0.0 0.00 0.00 0.00 73 1016.5
20260506022754 69 182 0.0 0.0 0.00 0.00 0.00 72 1016.5
20260506022252 69 178 0.0 0.0 0.00 0.00 0.00 73 1016.5
20260506021750 69 175 0.0 0.0 0.00 0.00 0.00 73 1016.5
20260506021246 69 175 0.0 0.0 0.00 0.00 0.00 73 1016.3
20260506020743 69 175 0.0 0.0 0.00 0.00 0.00 73 1016.5
20260506020241 69 175 0.0 0.0 0.00 0.00 0.00 73 1016.7
20260506015738 69 175 0.0 0.0 0.00 0.00 0.00 74 1016.4
20260506015236 69 175 0.0 0.0 0.00 0.00 0.00 74 1016.3
20260506014732 69 175 0.0 0.0 0.00 0.00 0.00 74 1016.2
20260506014229 69 175 0.0 0.0 0.00 0.00 0.00 74 1015.9
20260506013726 69 174 0.0 0.0 0.00 0.00 0.00 74 1016.2
20260506013223 69 175 0.0 0.0 0.00 0.00 0.00 74 1016.1
20260506012719 69 174 0.0 0.0 0.00 0.00 0.00 74 1016.2
20260506012217 69 175 0.0 0.0 0.00 0.00 0.00 73 1016.0
20260506011714 69 174 0.0 0.0 0.00 0.00 0.00 73 1016.3
20260506011210 69 175 0.0 0.0 0.00 0.00 0.00 73 1016.3
20260506010708 69 175 0.0 0.0 0.00 0.00 0.00 73 1016.3
20260506010205 69 175 0.0 0.0 0.00 0.00 0.00 72 1015.9
20260506005702 69 172 0.0 0.0 0.00 0.00 0.00 71 1015.8
20260506005159 69 156 0.0 0.0 0.00 0.00 0.00 70 1015.8
20260506004655 69 147 0.0 0.0 0.00 0.00 0.00 70 1016.0
20260506004153 69 146 0.0 0.0 0.00 0.00 0.00 70 1015.9
20260506003649 69 168 0.0 0.0 0.00 0.00 0.00 71 1015.9
20260506003145 69 174 0.0 0.0 0.00 0.00 0.00 72 1016.2
20260506002641 69 175 0.0 0.0 0.00 0.00 0.00 72 1016.1
20260506002138 69 175 0.0 0.0 0.00 0.00 0.00 72 1016.1
20260506001633 69 175 0.0 0.0 0.00 0.00 0.00 72 1016.3
20260506001131 69 174 0.0 0.0 0.00 0.00 0.00 72 1016.1
20260506000628 70 174 0.0 0.0 0.00 0.00 0.00 72 1016.1
20260506000125 70 174 0.0 0.0 0.00 0.00 0.00 71 1016.2
20260505235623 70 161 0.0 0.0 0.00 0.00 0.00 71 1016.2
20260505235120 70 138 0.0 0.0 0.00 0.00 0.00 71 1016.0
20260505234617 71 190 0.0 0.0 0.00 0.00 0.00 70 1015.9
20260505234114 71 190 0.0 0.0 0.00 0.00 0.00 69 1015.9
20260505233611 71 187 0.0 0.0 0.00 0.00 0.00 69 1015.8
20260505233108 71 186 0.0 0.0 0.00 0.00 0.00 68 1016.1
20260505232606 71 144 0.0 0.0 0.00 0.00 0.00 67 1015.7
20260505232104 71 175 0.0 0.0 0.00 0.00 0.00 67 1015.7
20260505231600 71 172 0.0 0.0 0.00 0.00 0.00 66 1016.0
20260505231059 71 151 0.0 0.0 0.00 0.00 0.00 66 1015.9
20260505230556 71 151 0.0 0.0 0.00 0.00 0.00 65 1016.1
20260505230052 72 149 0.0 0.0 0.00 0.00 0.00 67 1015.9
20260505225549 72 156 0.0 0.0 0.00 0.00 0.00 67 1016.1
20260505225045 72 156 0.0 0.0 0.00 0.00 0.00 67 1016.0
20260505224542 72 175 0.0 0.0 0.00 0.00 0.00 65 1016.0
20260505224040 72 155 0.0 0.0 0.00 0.00 0.00 64 1016.1
20260505223537 73 194 0.0 0.0 0.00 0.00 0.00 66 1016.2
20260505223033 73 201 0.0 0.0 0.00 0.00 0.00 65 1016.2
20260505222529 73 196 0.0 0.0 0.00 0.00 0.00 64 1016.1
20260505222025 73 204 0.0 0.0 0.00 0.00 0.00 63 1016.3
20260505221523 73 204 0.0 0.0 0.00 0.00 0.00 63 1016.1
20260505221019 74 195 0.0 0.0 0.00 0.00 0.00 61 1016.2
20260505220517 74 204 0.0 0.0 0.00 0.00 0.00 60 1016.0
20260505220014 75 204 0.0 0.0 0.00 0.00 0.00 62 1016.3
20260505215512 75 203 0.0 0.0 0.00 0.00 0.00 60 1016.2
20260505215010 75 203 0.0 0.0 0.00 0.00 0.00 58 1016.2
20260505214508 76 196 0.0 0.0 0.00 0.00 0.00 59 1016.3
20260505214004 77 195 0.0 0.0 0.00 0.00 0.00 57 1016.5
20260505213502 76 193 0.0 0.0 0.00 0.00 0.00 59 1016.4
20260505212958 76 197 0.0 0.0 0.00 0.00 0.00 58 1016.6
20260505212455 76 175 0.0 0.0 0.00 0.00 0.00 56 1016.5
20260505211951 77 219 0.0 0.0 0.00 0.00 0.00 58 1016.4
20260505211449 77 220 0.0 0.0 0.00 0.00 0.00 56 1016.3
20260505210945 76 217 0.0 0.0 0.00 0.00 0.00 58 1016.2
20260505210442 76 218 0.0 0.0 0.00 0.00 0.00 59 1016.3
20260505205939 75 210 0.0 0.0 0.00 0.00 0.00 60 1016.0
20260505205438 75 217 0.0 0.0 0.00 0.00 0.00 61 1015.9
20260505204934 76 204 0.0 0.0 0.00 0.00 0.00 61 1016.2
20260505204432 77 202 0.0 0.0 0.00 0.00 0.00 59 1016.2
20260505203929 77 191 0.0 0.0 0.00 0.00 0.00 59 1016.2
20260505203425 77 214 0.0 0.0 0.00 0.00 0.00 59 1016.3
20260505202921 78 232 0.0 0.0 0.00 0.00 0.00 57 1016.2
20260505202418 78 239 0.0 0.0 0.00 0.00 0.00 56 1016.4
20260505201915 77 237 0.0 0.0 0.00 0.00 0.00 57 1016.2
20260505201412 78 205 0.0 0.0 0.00 0.00 0.00 57 1016.5
20260505200910 77 225 0.0 0.0 0.00 0.00 0.00 57 1016.4
20260505200407 77 220 0.0 0.0 0.00 0.00 0.00 58 1016.3
20260505195902 78 209 0.0 0.0 0.00 0.00 0.00 57 1016.8
20260505195400 78 209 0.0 0.0 0.00 0.00 0.00 58 1016.9
20260505194857 78 195 0.0 0.0 0.00 0.00 0.00 57 1017.0
20260505194354 79 196 0.0 0.0 0.00 0.00 0.00 55 1017.0
20260505193854 79 197 0.0 0.0 0.00 0.00 0.00 54 1017.2
20260505193353 80 197 0.0 0.0 0.00 0.00 0.00 54 1017.4
20260505192850 80 196 0.0 0.0 0.00 0.00 0.00 52 1017.3
20260505192348 80 200 0.0 0.0 0.00 0.00 0.00 52 1017.5
20260505191845 80 210 0.0 0.0 0.00 0.00 0.00 52 1017.6
20260505191344 80 206 0.0 0.0 0.00 0.00 0.00 54 1017.7
20260505190840 80 198 0.0 0.0 0.00 0.00 0.00 52 1017.7
20260505190336 80 194 0.0 0.0 0.00 0.00 0.00 52 1017.6
20260505185831 80 187 0.0 0.0 0.00 0.00 0.00 53 1017.5
20260505185328 79 187 0.0 0.0 0.00 0.00 0.00 55 1017.5
20260505184824 80 213 0.9 1.7 0.00 0.00 0.00 52 1017.6
20260505184321 79 197 0.0 0.0 0.00 0.00 0.00 56 1017.8
20260505183818 80 220 0.0 0.0 0.00 0.00 0.00 53 1017.5
20260505183315 79 219 0.0 0.0 0.00 0.00 0.00 56 1017.3
20260505182812 78 225 0.0 0.0 0.00 0.00 0.00 53 1017.3
20260505182309 80 211 0.0 0.0 0.00 0.00 0.00 54 1017.3
20260505181806 79 210 0.0 0.0 0.00 0.00 0.00 53 1017.4
20260505181303 79 210 0.0 0.0 0.00 0.00 0.00 55 1017.6
20260505180759 78 200 0.0 0.0 0.00 0.00 0.00 57 1017.5
20260505180256 79 206 0.0 0.0 0.00 0.00 0.00 52 1017.5
20260505175752 78 227 0.0 0.0 0.00 0.00 0.00 55 1017.4
20260505175249 80 218 0.0 0.0 0.00 0.00 0.00 53 1017.7
20260505174745 80 228 0.0 0.0 0.00 0.00 0.00 52 1017.2
20260505174243 79 226 0.0 0.0 0.00 0.00 0.00 52 1017.1
20260505173738 80 228 0.0 0.0 0.00 0.00 0.00 53 1017.3
20260505173235 80 228 0.0 0.0 0.00 0.00 0.00 56 1017.5
20260505172732 80 228 0.0 0.0 0.00 0.00 0.00 55 1017.6
20260505172229 80 225 0.0 0.0 0.00 0.00 0.00 53 1017.8
20260505171729 80 221 0.0 0.0 0.00 0.00 0.00 55 1017.9
20260505171227 78 211 0.0 0.0 0.00 0.00 0.00 58 1018.0
20260505170723 78 217 0.0 0.0 0.00 0.00 0.00 57 1017.6
20260505170220 79 222 0.0 0.0 0.00 0.00 0.00 56 1018.0
20260505165715 79 211 0.0 0.0 0.00 0.00 0.00 56 1017.8
20260505165212 78 208 0.0 0.0 0.00 0.00 0.00 57 1018.2
20260505164707 78 197 0.0 0.0 0.00 0.00 0.00 57 1018.1
20260505164204 78 196 0.0 0.0 0.00 0.00 0.00 55 1018.2
20260505163703 77 192 0.0 0.0 0.00 0.00 0.00 60 1018.2
20260505163201 77 196 0.0 0.0 0.00 0.00 0.00 59 1018.0
20260505162658 77 193 0.0 0.0 0.00 0.00 0.00 60 1018.1
20260505162155 76 193 0.0 0.0 0.00 0.00 0.00 60 1018.2
20260505161652 76 220 0.0 0.0 0.00 0.00 0.00 60 1018.2
20260505161149 76 216 0.0 0.0 0.00 0.00 0.00 61 1018.3
20260505160647 75 214 0.0 0.0 0.00 0.00 0.00 62 1018.2
20260505160144 76 214 0.0 0.0 0.00 0.00 0.00 61 1018.3
20260505153123 75 214 0.0 0.0 0.00 0.00 0.00 64 1018.1
20260505152620 75 214 0.0 0.0 0.00 0.00 0.00 63 1018.2
20260505152116 74 204 0.0 0.0 0.00 0.00 0.00 66 1018.2
20260505151611 75 204 0.0 0.0 0.00 0.00 0.00 64 1018.2
20260505151109 74 204 0.0 0.0 0.00 0.00 0.00 63 1018.1
20260505150605 74 191 0.0 0.0 0.00 0.00 0.00 63 1018.4